Regional Weather Roundup
Issued by NWS

Home | Current Version | Previous Version | Graphics & Text | Print | Product List | Glossary On
Versions: 1 2 3 4 5 6 7 8 9 10 11 12 13 14 15 16 17 18 19 20 21 22 23 24 25 26 27 28 29 30 31 32 33 34 35 36 37 38 39 40 41 42 43 44 45 46 47 48 49 50
000
ASUS45 KSLC 010310
RWRUT

UTAH REGIONAL WEATHER ROUNDUP
NATIONAL WEATHER SERVICE SALT LAKE CITY UT
900 PM MDT THU JUL 31 2014

UTZ001>011-023>025-010400-

NORTHERN UTAH

CITY           SKY/WX    TMP DP  RH WIND       PRES   REMARKS
HILL AFB       CLOUDY    76  54  45 CALM      30.15S
LOGAN          CLEAR     75  53  46 E6        30.11F
OGDEN          MOCLDY    77  51  40 SW6       30.12S
PROVO AIRPORT  MOCLDY    73  54  49 S7        30.14R
SALT LAKE CITY MOCLDY    78  49  35 NW6       30.11R
VERNAL         CLOUDY    77  42  28 NW6       30.14R
WENDOVER       CLOUDY    75  43  31 CALM      30.11F
HEBER CITY     MOCLDY    66  54  63 NE8       30.20R
WEST JORDAN    CLEAR     75  55  50 NW3       30.14R

$$

UTZ012>022-026-027-010400-

SOUTHERN UTAH

CITY           SKY/WX    TMP DP  RH WIND       PRES   REMARKS
BRYCE CANYON   MOCLDY    63  49  60 NE8       30.35R
CEDAR CITY     LGT RAIN  72  50  45 NW23G32   30.21R
MILFORD        CLOUDY    72  55  55 N18G28    30.17R
MOAB/CYNLANDS  PTCLDY    83  54  36 CALM      30.04R
PRICE          MOCLDY    69  50  50 NE9       30.20S
ST GEORGE      MOCLDY    90  50  25 NE24G33   29.93R
KANAB            N/A     81  46  30 N6        30.14R

$$

REGIONAL REPORTS     COLORADO/ARIZONA

CITY           SKY/WX    TMP DP  RH WIND       PRES   REMARKS
CRAIG, CO      MOCLDY    59  53  80 CALM      30.20S
GRAND JUNCTION MOCLDY    76  52  43 NW6       30.07R
RIFLE          MOCLDY    73  49  42 E10       30.14R
MONTROSE       MOCLDY    74  56  53 S5        30.17R
CORTEZ         CLEAR     69  51  52 CALM      30.16R
PAGE, AZ       CLOUDY    77  53  43 S16       30.06F
GRAND CANYON   MOCLDY    61  56  83 SW5       30.28R
KINGMAN        CLOUDY    87  50  27 SE17      30.00R
FLAGSTAFF      LGT RAIN  57  54  89 W5        30.36F

$$

REGIONAL REPORTS    NEVADA/IDAHO/WYOMING

CITY           SKY/WX    TMP DP  RH WIND       PRES   REMARKS
LAS VEGAS, NV  MOCLDY   103  40  11 SW15      29.80R HX  98
ELY            PTCLDY    65  46  50 N16       30.30R
ELKO           CLOUDY    68  51  54 VRB3      30.22R
POCATELLO, ID  PTCLDY    80  47  31 CALM      30.12R
BURLEY         MOCLDY    75  51  43 S10       30.09R
EVANSTON, WY   PTCLDY    69  36  29 NE5       30.31R
ROCK SPRINGS   CLEAR     69  24  18 E7        30.28R

$$


USA.gov is the U.S. government's official web portal to all federal, state and local government web resources and services.